Columbia, SC

5:04 AM EST on February 23, 2017 (GMT -0500)
Columbia Owens Downtown

Weather History for KCUB - April, 2014

Change the Weather History Date:

Thursday, April 3, 2014

  Actual Average Record
Temperature  
Mean Temperature 72 °F 62 °F  
Max Temperature 88 °F 74 °F 88 °F (2014)
Min Temperature 56 °F 50 °F 37 °F (2004)
Degree Days  
Heating Degree Days 0 5  
Month to date heating degree days 0 15  
Since 1 July heating degree days 2384 2218  
Cooling Degree Days 7 2  
Month to date cooling degree days 12 4  
Year to date cooling degree days 20 22  
Growing Degree Days 22 (Base 50)    
Moisture  
Dew Point 43 °F    
Average Humidity 40    
Maximum Humidity 67    
Minimum Humidity 15    
Precipitation  
Precipitation 0.00 in 0.11 in 0.39 in (2012)
Month to date precipitation 0.00 0.34  
Year to date precipitation 10.27 11.50  
Sea Level Pressure  
Sea Level Pressure 30.03 in    
Wind  
Wind Speed 4 mph (SSW)    
Max Wind Speed 20 mph    
Max Gust Speed 28 mph    
Visibility 10 miles    
Events      
T = Trace of Precipitation, MM = Missing Value Source: NWS Daily Summary

Daily Weather History Graph

Daily Weather History Graph

Search for Another Location

Airport or City:

Trip Planner

Search our weather history database for the weather conditions in past years. The results will help you decide how hot, cold, wet, or windy it might be!

Date:

Astronomy

Apr. 03, 2014 Rise Set
Actual Time 7:08 AM EDT 7:46 PM EDT
Civil Twilight 6:43 AM EDT 8:11 PM EDT
Nautical Twilight 6:13 AM EDT 8:41 PM EDT
Astronomical Twilight 5:43 AM EDT 9:11 PM EDT
Moon 9:45 AM EDT (4/3) 11:54 PM EDT (4/3)
Length of Visible Light 13h 28m
Length of Day
12h 37m
Waxing Crescent, 17% of the Moon is Illuminated
Apr 3
Waxing Crescent
Apr 7
First Quarter
Apr 15
Full
Apr 22
Last Quarter
Apr 29
New

Hourly Weather History & Observations

Time (EDT) Temp. Dew Point Humidity Pressure Visibility Wind Dir Wind Speed Gust Speed Precip Events Conditions
12:53 AM 59.0 °F 37.9 °F 46% 30.08 in 10.0 mi Calm Calm - N/A   Clear
1:53 AM 57.9 °F 41.0 °F 53% 30.07 in 10.0 mi Calm Calm - N/A   Clear
2:53 AM 57.0 °F 41.0 °F 55% 30.06 in 10.0 mi Calm Calm - N/A   Clear
3:53 AM 60.1 °F 41.0 °F 49% 30.04 in 10.0 mi Calm Calm - N/A   Clear
4:53 AM 57.0 °F 44.1 °F 62% 30.05 in 10.0 mi Calm Calm - N/A   Clear
5:53 AM 57.0 °F 45.0 °F 64% 30.05 in 10.0 mi Calm Calm - N/A   Clear
6:53 AM 57.0 °F 46.0 °F 67% 30.06 in 10.0 mi Calm Calm - N/A   Clear
7:53 AM 59.0 °F 48.9 °F 69% 30.09 in 10.0 mi Calm Calm - N/A   Clear
8:53 AM 64.0 °F 48.0 °F 56% 30.10 in 10.0 mi Calm Calm - N/A   Clear
9:53 AM 68.0 °F 48.9 °F 50% 30.10 in 10.0 mi Calm Calm - N/A   Clear
10:53 AM - - N/A% 30.10 in 10.0 mi Variable 3.5 mph - N/A   Clear
11:14 AM - - N/A% 30.10 in 10.0 mi South 4.6 mph - N/A   Mostly Cloudy
11:53 AM 77.0 °F 51.1 °F 40% 30.08 in 10.0 mi Variable 3.5 mph - N/A   Overcast
12:26 PM 81.0 °F 46.9 °F 30% 30.07 in 10.0 mi South 4.6 mph - N/A   Overcast
12:53 PM 82.9 °F 39.0 °F 21% 30.05 in 10.0 mi WSW 9.2 mph - N/A   Mostly Cloudy
1:53 PM 86.0 °F 34.0 °F 16% 30.03 in 10.0 mi WSW 9.2 mph 17.3 mph N/A   Clear
2:53 PM 87.1 °F 34.0 °F 15% 29.99 in 10.0 mi SSW 12.7 mph 19.6 mph N/A   Clear
3:53 PM 87.1 °F 39.0 °F 18% 29.97 in 10.0 mi SW 12.7 mph - N/A   Clear
4:53 PM 87.1 °F 39.0 °F 18% 29.95 in 10.0 mi SSW 12.7 mph - N/A   Clear
5:53 PM 86.0 °F 41.0 °F 20% 29.94 in 10.0 mi SSW 11.5 mph - N/A   Clear
6:53 PM 84.9 °F 43.0 °F 23% 29.95 in 10.0 mi SSW 11.5 mph - N/A   Clear
7:53 PM 80.1 °F 42.1 °F 26% 29.95 in 10.0 mi SSW 4.6 mph - N/A   Clear
8:53 PM 75.9 °F 44.1 °F 32% 29.96 in 10.0 mi South 3.5 mph - N/A   Clear
9:53 PM 73.0 °F 46.9 °F 39% 29.96 in 10.0 mi Calm Calm - N/A   Clear
11:53 PM 69.1 °F 50.0 °F 51% 29.97 in 10.0 mi South 4.6 mph - N/A   Clear